"Pseudo-MPEC" for C2YQV42

Created 2020 Aug 6 7:07:06 UT using Find_Orb

Click here for an explanation of pseudo-MPECs

 
 Astrometry: 
     C2YQV42  C2020 08 01.46277 01 09 16.19 +27 36 22.6    ~81Bqx20.8 GVNEOCPG96
     C2YQV42  C2020 08 01.46710 01 09 16.65 +27 36 34.6    ~81Bq 21.2 GVNEOCPG96
     C2YQV42  C2020 08 01.47143 01 09 17.01 +27 36 45.4    ~81Bq 21.2 GVNEOCPG96
     C2YQV42  C2020 08 01.47576 01 09 17.52 +27 36 58.9    ~81Bq 21.0 GVNEOCPG96
     C2YQV42  C2020 08 01.48363 01 09 18.33 +27 37 21.2    ~81C7 21.6 GVNEOCPG96
     C2YQV42  C2020 08 01.48516 01 09 18.51 +27 37 25.5    ~81C7 21.4 GVNEOCPG96
     C2YQV42  C2020 08 01.48591 01 09 18.64 +27 37 27.9    ~81C7       VNEOCPG96
     C2YQV42  C2020 08 02.42435 01 10 57.91 +28 22 07.4    ~83Aq 21.3 GVNEOCPG96
     C2YQV42  C2020 08 02.42580 01 10 58.06 +28 22 12.3    ~83Aq 21.2 GVNEOCPG96
     C2YQV42  C2020 08 02.42869 01 10 58.34 +28 22 20.6    ~83Aq 21.5 GVNEOCPG96

Station data:
(G96) Mt. Lemmon Survey  (N32.442754 W110.788720)  US/Arizona.  Observers T.
   A. Pruyne, B. M. Africano, E. J. Christensen, G. A. Farneth, D. C. Fuls,
   A. R. Gibbs, A. D. Grauer, H. Gröller, J. A. Johnson, R. A. Kowalski, S.
   M. Larson, G. J. Leonard, D. Rankin, R. L. Seaman, F. C. Shelly. 1.5-m
   reflector + 10K CCD.

Orbital elements:  C2YQV42
   Perihelion 2020 Aug 1.948281 TT = 22:45:31 (JD 2459063.448281)
Epoch 2020 Aug  2.0 TT = JDT 2459063.5   Earth MOID: 0.3086   Ma: 0.0421
M   0.01855476                      (J2000 ecliptic)
n   0.35876255     Peri.   27.88369
a   1.96154364     Node   310.08451
e   0.3379745      Incl.   19.55275
P   2.75           H   20.2     G   0.15   q 1.29859177  Q 2.62449551
9 of 10 observations 2020 Aug. 1-2 (23.1 hr); mean residual 0".52
Residuals in arcseconds: 
200801 G96( .54-  1.1+)   200801 G96  .07+  .03-    200802 G96  .05+  .24+    
200801 G96  .21-  .70+    200801 G96  .42+  .11-    200802 G96  .06-  .26+    
200801 G96  1.2-  .90-    200801 G96  1.1+  .14+    
200801 G96  .20-  .20+    200802 G96  .01-  .50-    

Ephemerides (geocentric):
Date (UTC) HH   RA              Dec         delta   r     elong  mag
---- -- -- --  -------------   -----------  ------ ------ -----  ---
2020 08 06 07  01 17 36.996   +31 24 57.45  .61669 1.2992 102.9 21.6
2020 08 06 08  01 17 41.220   +31 26 54.79  .61662 1.2992 102.9 21.6
2020 08 06 09  01 17 45.441   +31 28 52.12  .61654 1.2992 102.9 21.6
2020 08 06 10  01 17 49.661   +31 30 49.42  .61646 1.2992 102.9 21.6
2020 08 06 11  01 17 53.878   +31 32 46.70  .61639 1.2992 102.9 21.6
2020 08 06 12  01 17 58.095   +31 34 43.97  .61631 1.2992 102.9 21.6
2020 08 06 13  01 18 02.309   +31 36 41.21  .61623 1.2992 102.9 21.6
2020 08 06 14  01 18 06.521   +31 38 38.44  .61616 1.2992 102.9 21.6
2020 08 06 15  01 18 10.732   +31 40 35.64  .61608 1.2992 102.9 21.6
2020 08 06 16  01 18 14.940   +31 42 32.82  .61600 1.2993 103.0 21.6
2020 08 06 17  01 18 19.147   +31 44 29.98  .61593 1.2993 103.0 21.6
2020 08 06 18  01 18 23.352   +31 46 27.12  .61585 1.2993 103.0 21.6
2020 08 06 19  01 18 27.555   +31 48 24.24  .61578 1.2993 103.0 21.6
2020 08 06 20  01 18 31.757   +31 50 21.34  .61570 1.2993 103.0 21.6
2020 08 06 21  01 18 35.956   +31 52 18.42  .61563 1.2993 103.0 21.6
2020 08 06 22  01 18 40.154   +31 54 15.47  .61555 1.2993 103.0 21.6
2020 08 06 23  01 18 44.350   +31 56 12.51  .61548 1.2993 103.0 21.6
2020 08 07 00  01 18 48.544   +31 58 09.52  .61540 1.2993 103.0 21.6
2020 08 07 01  01 18 52.736   +32 00 06.52  .61533 1.2994 103.0 21.6
2020 08 07 02  01 18 56.926   +32 02 03.49  .61525 1.2994 103.0 21.6
2020 08 07 03  01 19 01.114   +32 04 00.44  .61518 1.2994 103.0 21.6
2020 08 07 04  01 19 05.301   +32 05 57.37  .61510 1.2994 103.0 21.6
2020 08 07 05  01 19 09.485   +32 07 54.27  .61503 1.2994 103.1 21.6
2020 08 07 06  01 19 13.668   +32 09 51.16  .61496 1.2994 103.1 21.6
2020 08 07 07  01 19 17.849   +32 11 48.02  .61488 1.2994 103.1 21.6
2020 08 07 08  01 19 22.028   +32 13 44.86  .61481 1.2995 103.1 21.6
2020 08 07 09  01 19 26.205   +32 15 41.68  .61474 1.2995 103.1 21.6
2020 08 07 10  01 19 30.380   +32 17 38.48  .61466 1.2995 103.1 21.6
2020 08 07 11  01 19 34.554   +32 19 35.26  .61459 1.2995 103.1 21.6
2020 08 07 12  01 19 38.725   +32 21 32.01  .61452 1.2995 103.1 21.6
2020 08 07 13  01 19 42.894   +32 23 28.74  .61444 1.2995 103.1 21.6
2020 08 07 14  01 19 47.062   +32 25 25.45  .61437 1.2995 103.1 21.6
2020 08 07 15  01 19 51.228   +32 27 22.13  .61430 1.2995 103.1 21.6
2020 08 07 16  01 19 55.392   +32 29 18.80  .61423 1.2996 103.1 21.6
2020 08 07 17  01 19 59.553   +32 31 15.44  .61415 1.2996 103.2 21.6
2020 08 07 18  01 20 03.713   +32 33 12.06  .61408 1.2996 103.2 21.6
2020 08 07 19  01 20 07.871   +32 35 08.65  .61401 1.2996 103.2 21.6
2020 08 07 20  01 20 12.027   +32 37 05.22  .61394 1.2996 103.2 21.6
2020 08 07 21  01 20 16.182   +32 39 01.77  .61387 1.2996 103.2 21.6
2020 08 07 22  01 20 20.334   +32 40 58.30  .61380 1.2996 103.2 21.6
2020 08 07 23  01 20 24.484   +32 42 54.81  .61372 1.2997 103.2 21.6
2020 08 08 00  01 20 28.633   +32 44 51.29  .61365 1.2997 103.2 21.6
2020 08 08 01  01 20 32.779   +32 46 47.74  .61358 1.2997 103.2 21.6
2020 08 08 02  01 20 36.923   +32 48 44.18  .61351 1.2997 103.2 21.6
2020 08 08 03  01 20 41.066   +32 50 40.59  .61344 1.2997 103.2 21.6
2020 08 08 04  01 20 45.207   +32 52 36.98  .61337 1.2997 103.2 21.6
2020 08 08 05  01 20 49.345   +32 54 33.34  .61330 1.2998 103.3 21.6
2020 08 08 06  01 20 53.482   +32 56 29.68  .61323 1.2998 103.3 21.6